sat.trackr.live / text

‹ back to catalog

STARLINK-33743

NORAD 63440 · 2025-069H

PAYLOAD ACTIVE UNKNOWN

§ Identity

Operator
Country
US
Launch date
2025-04-04
Launch site
AFWTR
Launch vehicle
Mass (kg)
RCS (m²)

Purposes: comms

External: N2YO · Heavens-Above · Gunter

§ Orbital elements

Epoch: 2026-09-20T10:44:23.006400Z

Period
93.85 min
Inclination
53.1600°
Eccentricity
0.0001196
Mean motion
15.34405362 rev/d
Perigee alt
461.9 km
Apogee alt
463.5 km
Semi-major
6,840.8 km
B*
3.6044e-4
RAAN
309.9852°
Arg perigee
78.9947°
Mean anomaly
281.1190°
Rev number
8,322

§ Raw data

STARLINK-337431 63440U 25069H   26263.44748850  .00011823  00000+0  36044-3 0  99922 63440  53.1600 309.9852 0001196  78.9947 281.1190 15.34405362 83221

JSON: /api/v1/satellites/63440 · /tle

For live sub-satellite position, see the globe view (requires WebGL).

§ Visibility from observer

Set your observer location to see the next 7 days of passes ≥ 10°. The values pass through the URL so the page stays shareable.

No JS? Fill the form by hand. The geolocation button needs JavaScript.